Waterbury, CT

2:50 AM EDT on July 27, 2016 (GMT -0400)
Waterbury-Oxford

Weather History for KOXC - January, 2013

Change the Weather History Date:

Tuesday, January 29, 2013

  Actual Average Record
Temperature  
Mean Temperature 32 °F -  
Max Temperature 35 °F 32 °F 62 °F (2002)
Min Temperature 28 °F 18 °F 3 °F (2005)
Degree Days  
Heating Degree Days 34    
Moisture  
Dew Point 29 °F    
Average Humidity 82    
Maximum Humidity 87    
Minimum Humidity 80    
Precipitation  
Precipitation 0.02 in - - ()
Sea Level Pressure  
Sea Level Pressure 30.08 in    
Wind  
Wind Speed 1 mph (SE)    
Max Wind Speed 6 mph    
Max Gust Speed -    
Visibility 2 miles    
Events Fog , Rain    
Averages and records for this station are not official NWS values.
T = Trace of Precipitation, MM = Missing Value Source: NWS Daily Summary

Daily Weather History Graph

Daily Weather History Graph

Search for Another Location

Airport or City:

Trip Planner

Search our weather history database for the weather conditions in past years. The results will help you decide how hot, cold, wet, or windy it might be!

Date:

Astronomy

Jan. 29, 2013 Rise Set
Actual Time 7:06 AM EST 5:05 PM EST
Civil Twilight 6:37 AM EST 5:34 PM EST
Nautical Twilight 6:04 AM EST 6:07 PM EST
Astronomical Twilight 5:31 AM EST 6:40 PM EST
Moon 8:01 PM EST (1/29) 7:59 AM EST (1/29)
Length of Visible Light 10h 57m
Length of Day
9h 58m
Waning Gibbous, 94% of the Moon is Illuminated
Jan 29
Waning Gibbous
Feb 3
Last Quarter
Feb 10
New
Feb 17
First Quarter
Feb 25
Full

Hourly Weather History & Observations

Time (EST) Temp. Windchill Dew Point Humidity Pressure Visibility Wind Dir Wind Speed Gust Speed Precip Events Conditions
12:15 AM 32.0 °F - 28.4 °F 87% 29.98 in 1.5 mi Calm Calm - N/A   Overcast
12:35 AM 33.8 °F - 28.4 °F 81% 29.97 in 1.5 mi Calm Calm - N/A   Overcast
12:55 AM 33.8 °F - 28.4 °F 81% 29.97 in 2.0 mi Calm Calm - 0.01 in   Overcast
1:15 AM 33.8 °F - 28.4 °F 81% 29.98 in 2.0 mi Calm Calm - N/A   Overcast
1:35 AM 33.8 °F - 28.4 °F 81% 29.98 in 1.8 mi Calm Calm - N/A   Overcast
2:15 AM 33.8 °F - 28.4 °F 81% 29.99 in 2.0 mi Calm Calm - N/A   Overcast
2:35 AM 33.8 °F - 28.4 °F 81% 30.00 in 2.0 mi Calm Calm - N/A   Overcast
2:55 AM 33.8 °F - 28.4 °F 81% 30.00 in 2.0 mi Calm Calm - N/A   Overcast
3:15 AM 33.8 °F - 28.4 °F 81% 30.00 in 2.0 mi Calm Calm - N/A   Overcast
3:35 AM 32.0 °F - 28.4 °F 87% 30.00 in 2.0 mi Calm Calm - N/A   Overcast
3:55 AM 32.0 °F - 26.6 °F 80% 30.00 in 1.8 mi Calm Calm - N/A   Overcast
4:35 AM 32.0 °F - 28.4 °F 87% 30.01 in 1.8 mi Calm Calm - N/A   Overcast
4:55 AM 33.8 °F - 28.4 °F 81% 30.02 in 2.5 mi Calm Calm - N/A   Overcast
5:15 AM 33.8 °F - 28.4 °F 81% 30.03 in 2.0 mi Calm Calm - N/A   Overcast
5:35 AM 33.8 °F - 28.4 °F 81% 30.04 in 2.0 mi Calm Calm - N/A   Overcast
5:45 AM 33.8 °F - 28.4 °F 81% 30.04 in 1.5 mi Calm Calm - N/A Rain Light Rain
5:55 AM 33.8 °F - 28.4 °F 81% 30.04 in 2.0 mi Calm Calm - 0.01 in   Overcast
6:45 AM 32.0 °F - 26.6 °F 80% 30.07 in 1.0 mi Calm Calm - N/A   Overcast
7:35 AM 30.2 °F - 24.8 °F 80% 30.09 in 1.2 mi Calm Calm - N/A Fog Fog
7:45 AM 30.2 °F - 24.8 °F 80% 30.09 in 0.1 mi Calm Calm - N/A Fog Fog
8:45 AM 28.4 °F - 24.8 °F 86% 30.12 in 1.0 mi Calm Calm - N/A   Overcast
9:45 AM 30.2 °F - 24.8 °F 80% 30.14 in 3.0 mi Calm Calm - N/A   Overcast
10:45 AM 30.2 °F - 26.6 °F 86% 30.15 in 3.0 mi Calm Calm - N/A   Overcast
11:30 AM 32.0 °F - 26.6 °F 80% 30.16 in 1.0 mi Calm Calm - N/A   Mist
11:45 AM 32.0 °F - 28.4 °F 87% 30.14 in 0.5 mi Calm Calm - N/A Fog Fog
12:45 PM 33.8 °F - 28.4 °F 81% 30.13 in 0.2 mi Calm Calm - N/A Fog Fog
1:15 PM 33.8 °F 29.6 °F 28.4 °F 81% 30.13 in 1.0 mi ESE 4.6 mph - N/A   Overcast
1:45 PM 33.8 °F 29.6 °F 28.4 °F 81% 30.12 in 2.0 mi ESE 4.6 mph - N/A   Overcast
2:45 PM 33.8 °F 30.8 °F 30.2 °F 87% 30.12 in 3.0 mi East 3.5 mph - N/A   Overcast
3:45 PM 35.6 °F 32.8 °F 30.2 °F 81% 30.14 in 3.0 mi SSW 3.5 mph - N/A   Overcast
4:45 PM 33.8 °F 30.8 °F 28.4 °F 81% 30.13 in 3.0 mi SSE 3.5 mph - N/A   Overcast
5:45 PM 33.8 °F - 28.4 °F 81% 30.16 in 3.0 mi Calm Calm - N/A   Overcast
6:55 PM 33.8 °F 29.6 °F 30.2 °F 87% 30.12 in 3.0 mi SSE 4.6 mph - N/A   Overcast
7:50 PM 35.6 °F 31.7 °F 30.2 °F 81% 30.14 in 2.0 mi SSE 4.6 mph - N/A   Overcast
8:45 PM 35.6 °F 30.7 °F 30.2 °F 81% 30.13 in 1.0 mi SE 5.8 mph - N/A   Overcast
9:15 PM 35.6 °F 31.7 °F 30.2 °F 81% 30.14 in 1.8 mi SE 4.6 mph - N/A   Overcast
9:35 PM 35.6 °F 31.7 °F 30.2 °F 81% 30.14 in 2.0 mi SE 4.6 mph - N/A   Overcast
9:55 PM 35.6 °F 30.7 °F 30.2 °F 81% 30.13 in 1.5 mi ESE 5.8 mph - N/A   Overcast
10:15 PM 35.6 °F 30.7 °F 30.2 °F 81% 30.11 in 1.0 mi SE 5.8 mph - N/A   Overcast
10:35 PM 35.6 °F 32.8 °F 30.2 °F 81% 30.12 in 0.5 mi ESE 3.5 mph - N/A   Overcast
10:55 PM 35.6 °F 31.7 °F 30.2 °F 81% 30.12 in 0.5 mi SE 4.6 mph - N/A   Overcast
11:15 PM 35.6 °F 31.7 °F 30.2 °F 81% 30.11 in 0.2 mi SE 4.6 mph - N/A   Overcast
11:35 PM 35.6 °F - 32.0 °F 87% 30.13 in 0.2 mi Calm Calm - N/A   Overcast
11:55 PM 35.6 °F 31.7 °F 32.0 °F 87% 30.12 in 0.2 mi SE 4.6 mph - N/A   Overcast